Stündliche Wetter Abergele

Heute, 22 Juni, Dienstag

Zeit Temperatur Niederschläge Wind Luftdruck Luftfeuchtigkeit
00:00 +8°C° 0 mm 2 m/S 758 mmHg 88%
01:00 +9°C° 0 mm 1 m/S 759 mmHg 88%
02:00 +8°C° 0 mm 1 m/S 759 mmHg 88%
03:00 +7°C° 0 mm 1 m/S 759 mmHg 88%
04:00 +8°C° 0 mm 1 m/S 759 mmHg 85%
05:00 +9°C° 0 mm 1 m/S 759 mmHg 82%
06:00 +11°C° 0 mm 1 m/S 759 mmHg 79%
07:00 +12°C° 0 mm 1 m/S 760 mmHg 73%
08:00 +13°C° 0 mm 1 m/S 760 mmHg 66%
09:00 +14°C° 0 mm 1 m/S 760 mmHg 60%
10:00 +15°C° 0 mm 2 m/S 760 mmHg 57%
11:00 +16°C° 0 mm 2 m/S 760 mmHg 55%
12:00 +17°C° 0 mm 3 m/S 760 mmHg 53%
13:00 +17°C° 0 mm 3 m/S 760 mmHg 54%
14:00 +17°C° 0 mm 3 m/S 760 mmHg 55%
15:00 +17°C° 0 mm 3 m/S 760 mmHg 56%
16:00 +16°C° 0 mm 3 m/S 760 mmHg 59%
17:00 +16°C° 0 mm 3 m/S 760 mmHg 63%
18:00 +14°C° 0 mm 3 m/S 761 mmHg 67%
19:00 +13°C° 0 mm 2 m/S 761 mmHg 74%
20:00 +12°C° 0 mm 2 m/S 761 mmHg 82%
21:00 +9°C° 0 mm 2 m/S 761 mmHg 90%
22:00 +8°C° 0 mm 2 m/S 761 mmHg 89%
23:00 +8°C° 0 mm 2 m/S 761 mmHg 87%

Morgen, 23 Juni, Mittwoch

Zeit Temperatur Niederschläge Wind Luftdruck Luftfeuchtigkeit
00:00 +7°C° 0 mm 2 m/S 761 mmHg 86%
01:00 +7°C° 0 mm 2 m/S 761 mmHg 85%
02:00 +7°C° 0 mm 2 m/S 761 mmHg 84%
03:00 +7°C° 0 mm 3 m/S 761 mmHg 83%
04:00 +8°C° 0.1 mm 2 m/S 761 mmHg 83%
05:00 +9°C° 0.1 mm 2 m/S 761 mmHg 83%
06:00 +10°C° 0.1 mm 2 m/S 761 mmHg 83%
07:00 +10°C° 0.5 mm 2 m/S 761 mmHg 87%
08:00 +10°C° 0.5 mm 2 m/S 761 mmHg 90%
09:00 +10°C° 0.5 mm 2 m/S 761 mmHg 94%
10:00 +10°C° 0.3 mm 2 m/S 761 mmHg 94%
11:00 +12°C° 0.3 mm 2 m/S 761 mmHg 95%
12:00 +12°C° 0.3 mm 2 m/S 761 mmHg 95%
13:00 +12°C° 0.1 mm 2 m/S 761 mmHg 94%
14:00 +13°C° 0.1 mm 2 m/S 761 mmHg 93%
15:00 +13°C° 0.1 mm 2 m/S 761 mmHg 92%
16:00 +13°C° 0 mm 2 m/S 761 mmHg 91%
17:00 +14°C° 0 mm 2 m/S 761 mmHg 91%
18:00 +14°C° 0 mm 2 m/S 761 mmHg 91%
19:00 +14°C° 0 mm 2 m/S 761 mmHg 92%
20:00 +13°C° 0 mm 2 m/S 761 mmHg 94%
21:00 +13°C° 0 mm 2 m/S 761 mmHg 95%
22:00 +13°C° 0 mm 2 m/S 761 mmHg 95%
23:00 +13°C° 0 mm 2 m/S 761 mmHg 96%

übermorgen, 24 Juni, Donnerstag

Zeit Temperatur Niederschläge Wind Luftdruck Luftfeuchtigkeit
00:00 +13°C° 0 mm 2 m/S 761 mmHg 96%
01:00 +13°C° 0 mm 2 m/S 761 mmHg 96%
02:00 +13°C° 0 mm 2 m/S 760 mmHg 96%
03:00 +13°C° 0 mm 2 m/S 760 mmHg 96%
04:00 +14°C° 0 mm 2 m/S 760 mmHg 95%
05:00 +14°C° 0 mm 2 m/S 760 mmHg 94%
06:00 +14°C° 0 mm 1 m/S 760 mmHg 94%
07:00 +15°C° 0 mm 2 m/S 760 mmHg 91%
08:00 +16°C° 0 mm 2 m/S 760 mmHg 89%
09:00 +17°C° 0 mm 2 m/S 760 mmHg 86%
10:00 +17°C° 0 mm 2 m/S 760 mmHg 83%
11:00 +18°C° 0 mm 2 m/S 759 mmHg 81%
12:00 +19°C° 0 mm 2 m/S 759 mmHg 78%
13:00 +19°C° 0 mm 3 m/S 759 mmHg 75%
14:00 +19°C° 0 mm 3 m/S 759 mmHg 73%
15:00 +20°C° 0 mm 3 m/S 759 mmHg 71%
16:00 +19°C° 0 mm 3 m/S 758 mmHg 74%
17:00 +19°C° 0 mm 2 m/S 758 mmHg 77%
18:00 +18°C° 0 mm 2 m/S 758 mmHg 80%
19:00 +17°C° 0 mm 2 m/S 758 mmHg 85%
20:00 +16°C° 0 mm 2 m/S 758 mmHg 89%
21:00 +15°C° 0 mm 2 m/S 758 mmHg 93%
22:00 +15°C° 0.2 mm 2 m/S 758 mmHg 94%
23:00 +15°C° 0.2 mm 2 m/S 758 mmHg 95%

25 Juni, Freitag

Zeit Temperatur Niederschläge Wind Luftdruck Luftfeuchtigkeit
00:00 +15°C° 0.2 mm 2 m/S 758 mmHg 95%
01:00 +15°C° 0.4 mm 2 m/S 757 mmHg 96%
02:00 +14°C° 0.4 mm 1 m/S 757 mmHg 97%
03:00 +14°C° 0.4 mm 1 m/S 757 mmHg 98%
04:00 +14°C° 0.7 mm 1 m/S 757 mmHg 98%
05:00 +14°C° 0.7 mm 1 m/S 757 mmHg 98%
06:00 +14°C° 0.7 mm 2 m/S 757 mmHg 97%
07:00 +15°C° 0.1 mm 2 m/S 757 mmHg 94%
08:00 +16°C° 0.1 mm 2 m/S 757 mmHg 90%
09:00 +17°C° 0.1 mm 2 m/S 757 mmHg 87%
10:00 +18°C° 0 mm 2 m/S 757 mmHg 82%
11:00 +19°C° 0 mm 2 m/S 757 mmHg 77%
12:00 +20°C° 0 mm 2 m/S 757 mmHg 72%
13:00 +20°C° 0.1 mm 2 m/S 757 mmHg 74%
14:00 +20°C° 0.1 mm 2 m/S 757 mmHg 76%
15:00 +20°C° 0.1 mm 2 m/S 757 mmHg 78%
16:00 +19°C° 0.1 mm 2 m/S 757 mmHg 80%
17:00 +20°C° 0.1 mm 1 m/S 757 mmHg 81%
18:00 +20°C° 0.1 mm 1 m/S 757 mmHg 83%
19:00 +18°C° 0 mm 1 m/S 758 mmHg 87%
20:00 +16°C° 0 mm 1 m/S 758 mmHg 90%
21:00 +15°C° 0 mm 1 m/S 758 mmHg 94%
22:00 +15°C° 0.1 mm 1 m/S 758 mmHg 94%
23:00 +15°C° 0.1 mm 1 m/S 758 mmHg 94%

26 Juni, Samstag

Zeit Temperatur Niederschläge Wind Luftdruck Luftfeuchtigkeit
00:00 +15°C° 0.1 mm 1 m/S 758 mmHg 94%
01:00 +15°C° 0.5 mm 1 m/S 758 mmHg 95%
02:00 +15°C° 0.5 mm 1 m/S 758 mmHg 96%
03:00 +14°C° 0.5 mm 0 m/S 758 mmHg 97%
04:00 +14°C° 0.1 mm 0 m/S 758 mmHg 97%
05:00 +15°C° 0.1 mm 0 m/S 758 mmHg 96%
06:00 +16°C° 0.1 mm 1 m/S 758 mmHg 96%
07:00 +18°C° 0 mm 1 m/S 758 mmHg 92%
08:00 +18°C° 0 mm 1 m/S 758 mmHg 89%
09:00 +19°C° 0 mm 1 m/S 758 mmHg 85%
10:00 +19°C° 0.2 mm 1 m/S 758 mmHg 85%
11:00 +20°C° 0.2 mm 1 m/S 758 mmHg 85%
12:00 +20°C° 0.2 mm 1 m/S 758 mmHg 84%
13:00 +20°C° 0.3 mm 1 m/S 757 mmHg 84%
14:00 +20°C° 0.3 mm 1 m/S 757 mmHg 84%
15:00 +21°C° 0.3 mm 1 m/S 757 mmHg 84%
16:00 +20°C° 0.9 mm 1 m/S 757 mmHg 88%
17:00 +19°C° 0.9 mm 1 m/S 756 mmHg 92%
18:00 +18°C° 0.9 mm 1 m/S 756 mmHg 96%
19:00 +16°C° 1.3 mm 1 m/S 756 mmHg 97%
20:00 +16°C° 1.3 mm 2 m/S 756 mmHg 97%
21:00 +15°C° 1.3 mm 2 m/S 756 mmHg 98%
22:00 +15°C° 0.1 mm 2 m/S 756 mmHg 98%
23:00 +15°C° 0.1 mm 2 m/S 755 mmHg 98%

27 Juni, Sonntag

Zeit Temperatur Niederschläge Wind Luftdruck Luftfeuchtigkeit
00:00 +15°C° 0.1 mm 1 m/S 755 mmHg 99%
01:00 +15°C° 1.5 mm 1 m/S 754 mmHg 99%
02:00 +15°C° 1.5 mm 1 m/S 754 mmHg 99%
03:00 +15°C° 1.5 mm 1 m/S 754 mmHg 99%
04:00 +15°C° 0.9 mm 1 m/S 753 mmHg 99%
05:00 +15°C° 0.9 mm 2 m/S 753 mmHg 98%
06:00 +15°C° 0.9 mm 2 m/S 753 mmHg 98%
07:00 +15°C° 1.4 mm 2 m/S 753 mmHg 98%
08:00 +15°C° 1.4 mm 2 m/S 752 mmHg 98%
09:00 +14°C° 1.4 mm 3 m/S 752 mmHg 97%
10:00 +14°C° 0.3 mm 3 m/S 753 mmHg 94%
11:00 +14°C° 0.3 mm 4 m/S 753 mmHg 90%
12:00 +15°C° 0.3 mm 4 m/S 753 mmHg 86%
13:00 +15°C° 0 mm 4 m/S 753 mmHg 78%
14:00 +17°C° 0 mm 4 m/S 753 mmHg 69%
15:00 +18°C° 0 mm 4 m/S 753 mmHg 60%
16:00 +17°C° 0 mm 4 m/S 753 mmHg 61%
17:00 +15°C° 0 mm 4 m/S 753 mmHg 62%
18:00 +15°C° 0 mm 4 m/S 753 mmHg 63%
19:00 +13°C° 0 mm 4 m/S 753 mmHg 72%
20:00 +12°C° 0 mm 4 m/S 753 mmHg 82%
21:00 +10°C° 0 mm 3 m/S 753 mmHg 91%
22:00 +10°C° 0 mm 3 m/S 753 mmHg 92%
23:00 +10°C° 0 mm 3 m/S 753 mmHg 93%
Mehr zeigen

Wir brauchen deine Erlaubnis

Meteoprog und unser Service Anbieter werden persönliche Daten aufbewahren, so wie Cookies, Geräte Bezeichnung oder ähnliche Technologien von deinem Gerät und Prozess, so wie Persönliche Daten Inhalte und Werbungen, genauso wie social Media und den Verkehr zu analysieren.

  • Aufbewahrung und/oder Zugang zu deiner Geräte Informationen.

    Cookies, Geräte Bezeichnung oder andere Informationen, können aufbewahrt oder Zugang zu deinem Gerät erhalten, für den Grund, der oben angegeben wird.

  • Personalisierte Werbung und Inhalte, Messungen, Einblick in das Publikum und Produkt Entwicklung.

    Werbungen und Inhalte können personalisiert werden, basierend auf ein Profil. Mehr Daten können besser personalisierte Werbungen und Inhalte hinzufügen. Werbung und Inhalte können gezeigt und gemessen werden. Einblicke über das Publikum, welche die Werbung gesehen haben und den Inhalt, können abgeleitet werden. So wie Daten können genutzt werden, um es zu verbessern oder die Benutzer Erfahrung zu verbessern das System und die Software.

Wenn du “Ich stimme zu” klickst, erlaubst du uns, die Cookies zu benutzen die Geräte Bezeichnung, den Web oder ähnliche Technologien zu benutzen. Deine Settings, können in deinem Gerät bei deinem Browser geändert werden.

Für den bestimmten Zweck, berechtigten Interessen beruhen darauf, mehr als auf den Inhalt. Du kannst mehr darüber in unseren Privaten und Cookie Politik lesen.